GW6731 Weather Reports


Display with metric or nautical units.
time (UTC)temp
F
wind
direction
speed
MPH
gust
MPH
rain 1hr
in
rain 24hr
in
rain mn
in
humidity
%
barometer
mb
20260906224543 59 26 4.0 9.0 0.00 1.01 0.80 85 1017.2
20260906223044 58 19 4.0 8.0 0.00 1.01 0.80 85 1017.3
20260906221541 58 301 3.0 8.0 0.00 1.01 0.80 84 1017.2
20260906220042 58 11 4.0 9.0 0.00 1.01 0.80 83 1017.3
20260906214538 59 315 3.0 9.0 0.00 1.01 0.80 82 1017.2
20260906213041 60 238 3.0 9.0 0.00 1.01 0.80 79 1017.1
20260906211537 61 242 2.0 7.0 0.00 1.01 0.80 79 1017.0
20260906210046 61 32 2.0 7.0 0.00 1.01 0.80 79 1016.9
20260906204543 59 34 3.0 9.0 0.00 1.01 0.80 82 1017.0
20260906203040 57 68 4.0 10.0 0.00 1.01 0.80 84 1017.0
20260906201540 57 34 5.0 12.0 0.00 1.01 0.80 83 1017.2
20260906200041 58 57 5.0 11.0 0.00 1.01 0.80 81 1017.3
20260906194539 60 17 7.0 13.0 0.00 1.01 0.80 78 1017.1
20260906193041 61 346 6.0 13.0 0.00 1.01 0.80 77 1017.1
20260906191538 61 313 5.0 14.0 0.00 1.01 0.80 77 1017.2
20260906190043 61 344 6.0 15.0 0.00 1.01 0.80 76 1016.9
20260906184542 62 251 4.0 14.0 0.00 1.01 0.80 77 1016.7
20260906183047 59 317 5.0 13.0 0.00 1.01 0.80 81 1016.7
20260906181544 56 277 8.0 16.0 0.00 1.01 0.80 81 1017.1
20260906180040 55 9 7.0 16.0 0.02 1.01 0.80 85 1017.6
20260906174543 54 36 8.0 14.0 0.02 1.01 0.80 87 1018.0
20260906173038 53 34 7.0 14.0 0.02 1.01 0.80 92 1018.1
20260906171540 52 341 7.0 15.0 0.02 1.01 0.80 92 1019.0
20260906170035 52 304 5.0 11.0 0.00 0.99 0.78 91 1019.5
20260906164540 52 351 5.0 11.0 0.00 0.99 0.78 90 1019.1
20260906163038 53 299 3.0 10.0 0.00 0.99 0.78 91 1018.9
20260906161539 52 51 5.0 12.0 0.00 0.99 0.78 93 1018.7
20260906160038 52 309 5.0 12.0 0.01 0.99 0.78 92 1019.0
20260906154536 51 340 6.0 16.0 0.47 0.99 0.78 93 1019.1
20260906153039 51 344 6.0 13.0 0.66 0.99 0.78 93 1019.4
20260906151547 51 311 5.0 12.0 0.74 0.99 0.78 93 1019.6
20260906150037 51 326 5.0 10.0 0.73 0.98 0.77 92 1020.2
20260906144541 52 199 1.0 16.0 0.26 0.52 0.30 91 1020.1
20260906143036 53 286 3.0 12.0 0.07 0.33 0.11 90 1020.0
20260906141540 55 200 3.0 8.0 0.00 0.26 0.04 85 1019.5
20260906140037 59 14 5.0 12.0 0.00 0.26 0.04 79 1018.8
20260906134536 58 306 5.0 13.0 0.00 0.32 0.04 80 1018.6
20260906133046 56 146 3.0 6.0 0.00 0.32 0.04 83 1018.7
20260906131541 55 222 4.0 8.0 0.00 0.32 0.04 85 1018.7
20260906130038 55 11 5.0 11.0 0.00 0.32 0.04 86 1018.8
20260906124540 56 215 3.0 6.0 0.00 0.33 0.04 81 1018.9
20260906123041 57 278 2.0 10.0 0.00 0.33 0.04 79 1019.3
20260906121536 57 218 7.0 18.0 0.00 0.33 0.04 75 1019.2
20260906120039 59 13 7.0 16.0 0.00 0.33 0.04 66 1018.6
20260906114542 55 86 1.0 5.0 0.00 0.33 0.04 78 1019.3
20260906113047 54 45 2.0 4.0 0.00 0.33 0.04 81 1019.3
20260906111539 54 271 2.0 5.0 0.00 0.33 0.04 80 1018.7
20260906110035 54 40 1.0 8.0 0.00 0.33 0.04 80 1018.7
20260906104541 53 13 5.0 12.0 0.00 0.33 0.04 85 1018.6
20260906103050 53 330 8.0 13.0 0.00 0.33 0.04 87 1018.7
20260906101547 53 312 7.0 17.0 0.00 0.33 0.04 88 1019.0
20260906100036 53 22 6.0 12.0 0.01 0.33 0.04 89 1019.2
20260906094542 52 47 5.0 16.0 0.01 0.33 0.04 93 1019.1
20260906093049 52 295 5.0 10.0 0.01 0.33 0.04 95 1019.4
20260906091541 51 15 9.0 14.0 0.01 0.33 0.04 95 1020.4
20260906090039 50 11 11.0 17.0 0.00 0.32 0.03 95 1020.8
20260906084541 51 314 5.0 14.0 0.01 0.32 0.03 94 1021.1
20260906083041 51 14 5.0 9.0 0.01 0.32 0.03 94 1020.3
20260906081539 51 322 6.0 12.0 0.01 0.32 0.03 94 1020.6
20260906080039 51 293 2.0 14.0 0.01 0.32 0.03 93 1021.0
20260906074541 52 293 7.0 14.0 0.00 0.31 0.02 94 1020.6
20260906073042 51 30 7.0 14.0 0.00 0.31 0.02 93 1020.6
20260906071540 52 36 8.0 13.0 0.00 0.31 0.02 93 1021.1
20260906070035 52 306 4.0 10.0 0.02 0.31 0.02 93 1021.3
20260906064542 52 23 5.0 13.0 0.02 0.31 0.02 93 1021.3
20260906063041 52 313 8.0 13.0 0.02 0.31 0.02 92 1022.2
20260906061541 52 24 6.0 11.0 0.02 0.31 0.02 91 1022.1
20260906060040 52 263 7.0 12.0 0.06 0.29 0.00 90 1021.9
20260906054540 53 37 6.0 13.0 0.07 0.29 0.29 90 1021.5
20260906053041 52 43 4.0 12.0 0.07 0.29 0.29 91 1021.6
20260906051541 52 35 9.0 18.0 0.07 0.29 0.29 91 1021.4
20260906050045 53 324 5.0 14.0 0.01 0.23 0.23 89 1022.8
20260906044542 53 315 9.0 15.0 0.06 0.22 0.22 88 1021.1
20260906043039 52 35 6.0 13.0 0.13 0.22 0.22 89 1020.3
20260906041537 52 31 5.0 13.0 0.14 0.22 0.22 89 1020.9
20260906040037 52 317 9.0 16.0 0.14 0.22 0.22 89 1020.2
20260906034542 53 342 4.0 9.0 0.07 0.15 0.15 87 1022.7
20260906033038 55 275 6.0 15.0 0.01 0.09 0.09 82 1021.6
20260906031540 56 11 8.0 15.0 0.00 0.08 0.08 77 1020.7
20260906030045 56 342 8.0 16.0 0.00 0.08 0.08 76 1020.2
20260906024541 56 17 8.0 16.0 0.00 0.08 0.08 76 1019.6
20260906023048 56 22 7.0 12.0 0.00 0.08 0.08 75 1019.7
20260906021545 56 329 8.0 16.0 0.00 0.08 0.08 74 1019.8
20260906020039 57 318 7.0 17.0 0.00 0.08 0.08 74 1019.7
20260906014547 57 10 7.0 13.0 0.00 0.08 0.08 72 1019.7
20260906013046 58 5 6.0 12.0 0.00 0.08 0.08 71 1019.6
20260906011537 59 24 7.0 14.0 0.00 0.08 0.08 71 1019.6
20260906010043 59 345 7.0 15.0 0.00 0.08 0.08 70 1019.6
20260906004540 60 20 6.0 12.0 0.00 0.08 0.08 69 1019.8
20260906003042 60 329 7.0 13.0 0.00 0.08 0.08 67 1019.8
20260906001540 61 343 8.0 16.0 0.00 0.08 0.08 67 1019.9
20260906000042 61 34 6.0 12.0 0.00 0.08 0.08 67 1020.0
20260905234541 62 351 7.0 14.0 0.00 0.08 0.08 65 1020.2
20260905233041 63 11 6.0 11.0 0.00 0.08 0.08 65 1020.2
20260905231541 64 27 5.0 12.0 0.00 0.08 0.08 62 1020.0
20260905230042 64 28 5.0 13.0 0.00 0.08 0.08 62 1020.0